College Park, MD

4:13 PM EST on February 20, 2017 (GMT -0500)
College Park

Weather History for KCGS - November, 2011

Change the Weather History Date:

Monday, November 14, 2011

  Actual Average Record
Temperature  
Mean Temperature 64 °F -  
Max Temperature 73 °F 54 °F 78 °F (1955)
Min Temperature 55 °F 36 °F 20 °F (1986)
Degree Days  
Heating Degree Days 1    
Growing Degree Days 14 (Base 50)    
Moisture  
Dew Point 46 °F    
Average Humidity 53    
Maximum Humidity 67    
Minimum Humidity 38    
Precipitation  
Precipitation 0.00 in - - ()
Sea Level Pressure  
Sea Level Pressure 29.91 in    
Wind  
Wind Speed 6 mph (SSW)    
Max Wind Speed 13 mph    
Max Gust Speed 20 mph    
Visibility 10 miles    
Events      
Averages and records for this station are not official NWS values.
T = Trace of Precipitation, MM = Missing Value Source: NWS Daily Summary

Daily Weather History Graph

Daily Weather History Graph

Search for Another Location

Airport or City:

Trip Planner

Search our weather history database for the weather conditions in past years. The results will help you decide how hot, cold, wet, or windy it might be!

Date:

Astronomy

Nov. 14, 2011 Rise Set
Actual Time 6:49 AM EST 4:54 PM EST
Civil Twilight 6:20 AM EST 5:23 PM EST
Nautical Twilight 5:48 AM EST 5:55 PM EST
Astronomical Twilight 5:16 AM EST 6:26 PM EST
Moon 8:00 PM EST (11/14) 10:05 AM EST (11/14)
Length of Visible Light 11h 02m
Length of Day
10h 05m
Waning Gibbous, 87% of the Moon is Illuminated
Nov 14
Waning Gibbous
Nov 18
Last Quarter
Nov 25
New
Dec 2
First Quarter
Dec 10
Full

Hourly Weather History & Observations

Time (EST) Temp. Dew Point Humidity Pressure Visibility Wind Dir Wind Speed Gust Speed Precip Events Conditions
12:10 AM 57.2 °F 39.2 °F 51% 30.00 in 10.0 mi SSW 6.9 mph - N/A   Clear
12:30 AM 57.2 °F 41.0 °F 55% 29.99 in 10.0 mi SSW 5.8 mph - N/A   Clear
12:50 AM 57.2 °F 41.0 °F 55% 29.99 in 10.0 mi SSW 4.6 mph - N/A   Clear
1:10 AM 57.2 °F 42.8 °F 59% 29.99 in 10.0 mi SSW 5.8 mph - N/A   Clear
1:30 AM 57.2 °F 42.8 °F 59% 29.99 in 10.0 mi SSW 5.8 mph - N/A   Clear
1:50 AM 57.2 °F 42.8 °F 59% 29.99 in 10.0 mi SSW 4.6 mph - N/A   Clear
2:10 AM 55.4 °F 42.8 °F 63% 29.99 in 10.0 mi SSW 4.6 mph - N/A   Clear
2:25 AM 55.4 °F 44.6 °F 67% 29.99 in 10.0 mi SSW 3.5 mph - N/A   Clear
2:45 AM 55.4 °F 44.6 °F 67% 29.98 in 10.0 mi SW 8.1 mph - N/A   Clear
3:05 AM 55.4 °F 42.8 °F 63% 29.97 in 10.0 mi SSW 5.8 mph - N/A   Clear
3:25 AM 55.4 °F 42.8 °F 63% 29.97 in 10.0 mi SW 5.8 mph - N/A   Clear
3:45 AM 55.4 °F 44.6 °F 67% 29.97 in 10.0 mi SW 6.9 mph - N/A   Clear
4:05 AM 55.4 °F 44.6 °F 67% 29.97 in 10.0 mi SW 4.6 mph - N/A   Clear
4:25 AM 55.4 °F 44.6 °F 67% 29.97 in 10.0 mi Calm Calm - N/A   Clear
4:45 AM 55.4 °F 44.6 °F 67% 29.97 in 10.0 mi SW 6.9 mph - N/A   Clear
5:00 AM 55.4 °F 44.6 °F 67% 29.98 in 10.0 mi SW 3.5 mph - N/A   Clear
5:20 AM 55.4 °F 44.6 °F 67% 29.97 in 10.0 mi SSW 5.8 mph - N/A   Clear
5:40 AM 55.4 °F 44.6 °F 67% 29.97 in 10.0 mi SSW 5.8 mph - N/A   Clear
6:00 AM 55.4 °F 44.6 °F 67% 29.97 in 10.0 mi SSW 8.1 mph - N/A   Clear
6:40 AM 55.4 °F 44.6 °F 67% 29.96 in 10.0 mi SSW 4.6 mph - N/A   Clear
7:00 AM 57.2 °F 44.6 °F 63% 29.97 in 10.0 mi SW 5.8 mph - N/A   Clear
7:15 AM 57.2 °F 44.6 °F 63% 29.98 in 10.0 mi SW 6.9 mph - N/A   Clear
7:35 AM 57.2 °F 44.6 °F 63% 29.97 in 10.0 mi SSW 6.9 mph - N/A   Clear
7:55 AM 57.2 °F 44.6 °F 63% 29.98 in 10.0 mi SW 5.8 mph - N/A   Clear
8:15 AM 57.2 °F 46.4 °F 67% 29.97 in 10.0 mi SSW 4.6 mph - N/A   Clear
8:35 AM 59.0 °F 46.4 °F 63% 29.97 in 10.0 mi SW 5.8 mph - N/A   Clear
8:55 AM 59.0 °F 46.4 °F 63% 29.98 in 10.0 mi SW 8.1 mph - N/A   Clear
9:15 AM 59.0 °F 46.4 °F 63% 29.99 in 10.0 mi SW 8.1 mph - N/A   Clear
9:30 AM 60.8 °F 46.4 °F 59% 29.97 in 10.0 mi SSW 4.6 mph - N/A   Clear
9:50 AM 60.8 °F 46.4 °F 59% 29.96 in 10.0 mi SSW 4.6 mph - N/A   Clear
10:10 AM 62.6 °F 46.4 °F 55% 29.96 in 10.0 mi SW 5.8 mph - N/A   Clear
10:30 AM 62.6 °F 46.4 °F 55% 29.97 in 10.0 mi SW 5.8 mph 17.3 mph N/A   Clear
10:50 AM 64.4 °F 46.4 °F 52% 29.96 in 10.0 mi SSW 8.1 mph - N/A   Clear
11:10 AM 64.4 °F 46.4 °F 52% 29.95 in 10.0 mi SW 4.6 mph - N/A   Clear
11:30 AM 68.0 °F 46.4 °F 46% 29.94 in 10.0 mi SW 8.1 mph - N/A   Clear
11:45 AM 68.0 °F 46.4 °F 46% 29.92 in 10.0 mi South 5.8 mph - N/A   Clear
12:05 PM 69.8 °F 46.4 °F 43% 29.90 in 10.0 mi South 9.2 mph - N/A   Clear
12:25 PM 69.8 °F 46.4 °F 43% 29.89 in 10.0 mi SSW 5.8 mph - N/A   Clear
12:45 PM 71.6 °F 46.4 °F 41% 29.88 in 10.0 mi SW 8.1 mph 19.6 mph N/A   Clear
1:05 PM 71.6 °F 46.4 °F 41% 29.87 in 10.0 mi South 10.4 mph 18.4 mph N/A   Clear
1:45 PM 71.6 °F 46.4 °F 41% 29.85 in - SSW 10.4 mph 17.3 mph N/A   Clear
2:00 PM 73.4 °F 46.4 °F 38% 29.85 in - SSW 9.2 mph 17.3 mph N/A   Clear
2:20 PM 73.4 °F 46.4 °F 38% 29.84 in - SSW 9.2 mph 16.1 mph N/A   Clear
2:40 PM 73.4 °F 46.4 °F 38% 29.83 in - SSW 12.7 mph 17.3 mph N/A   Clear
3:00 PM 73.4 °F 46.4 °F 38% 29.83 in - SSW 8.1 mph 18.4 mph N/A   Clear
3:20 PM 73.4 °F 46.4 °F 38% 29.82 in - SSW 9.2 mph - N/A   Clear
3:40 PM 73.4 °F 46.4 °F 38% 29.83 in - SW 6.9 mph - N/A   Clear
4:00 PM 73.4 °F 46.4 °F 38% 29.83 in - SSW 6.9 mph - N/A   Clear
4:15 PM 71.6 °F 46.4 °F 41% 29.83 in - SSW 8.1 mph - N/A   Clear
4:55 PM 71.6 °F 46.4 °F 41% 29.83 in - SSW 5.8 mph - N/A   Clear
5:15 PM 71.6 °F 46.4 °F 41% 29.82 in - South 4.6 mph - N/A   Clear
5:35 PM 69.8 °F 46.4 °F 43% 29.82 in - SSW 5.8 mph - N/A   Clear
5:55 PM 69.8 °F 46.4 °F 43% 29.82 in 10.0 mi SSW 5.8 mph - N/A   Clear
6:15 PM 69.8 °F 46.4 °F 43% 29.82 in 10.0 mi SSW 4.6 mph - N/A   Clear
6:30 PM 69.8 °F 46.4 °F 43% 29.82 in 10.0 mi SSW 5.8 mph - N/A   Clear
6:50 PM 69.8 °F 48.2 °F 46% 29.82 in 10.0 mi SSW 5.8 mph - N/A   Clear
7:10 PM 69.8 °F 48.2 °F 46% 29.82 in 10.0 mi SSW 5.8 mph - N/A   Clear
7:30 PM 69.8 °F 48.2 °F 46% 29.81 in 10.0 mi SSW 6.9 mph - N/A   Clear
7:50 PM 69.8 °F 48.2 °F 46% 29.81 in 10.0 mi SSW 6.9 mph - N/A   Clear
8:10 PM 69.8 °F 48.2 °F 46% 29.81 in 10.0 mi SSW 9.2 mph - N/A   Clear
8:30 PM 69.8 °F 50.0 °F 49% 29.81 in 10.0 mi SSW 9.2 mph - N/A   Clear
8:45 PM 69.8 °F 50.0 °F 49% 29.81 in 10.0 mi SSW 6.9 mph 16.1 mph N/A   Clear
9:05 PM 69.8 °F 50.0 °F 49% 29.81 in 10.0 mi SSW 8.1 mph - N/A   Clear
9:25 PM 68.0 °F 50.0 °F 52% 29.81 in 10.0 mi SW 8.1 mph - N/A   Clear
9:45 PM 68.0 °F 50.0 °F 52% 29.81 in 10.0 mi SSW 5.8 mph - N/A   Clear
10:05 PM 68.0 °F 50.0 °F 52% 29.81 in 10.0 mi SW 3.5 mph - N/A   Clear
10:45 PM 68.0 °F 51.8 °F 56% 29.81 in 10.0 mi SSW 3.5 mph - N/A   Clear
11:00 PM 68.0 °F 51.8 °F 56% 29.81 in 10.0 mi SW 6.9 mph - N/A   Clear
11:20 PM 68.0 °F 51.8 °F 56% 29.81 in 10.0 mi SW 5.8 mph - N/A   Clear
11:40 PM 68.0 °F 51.8 °F 56% 29.81 in 10.0 mi SSW 8.1 mph - N/A   Clear